| time (UTC) | temp F | wind direction | speed MPH | gust MPH | rain 1hr in | rain 24hr in | rain mn in | humidity % | barometer mb |
| 20260831110503 | 79 | 246 | 0.0 | 5.0 | 0.00 | 0.26 | 0.22 | 24 | |
| 20260831110003 | 79 | 241 | 0.0 | 7.0 | 0.00 | 0.26 | 0.22 | 24 | |
| 20260831105503 | 79 | 264 | 2.0 | 9.0 | 0.00 | 0.26 | 0.22 | 24 | |
| 20260831105003 | 78 | 281 | 1.0 | 9.0 | 0.00 | 0.26 | 0.22 | 24 | |
| 20260831104503 | 78 | 283 | 2.0 | 8.0 | 0.00 | 0.26 | 0.22 | 23 | |
| 20260831104003 | 78 | 302 | 2.0 | 8.0 | 0.00 | 0.26 | 0.22 | 25 | |
| 20260831103503 | 78 | 329 | 4.0 | 8.0 | 0.00 | 0.26 | 0.22 | 25 | |
| 20260831103003 | 78 | 285 | 2.0 | 8.0 | 0.00 | 0.26 | 0.22 | 26 | |
| 20260831102503 | 78 | 291 | 2.0 | 8.0 | 0.00 | 0.26 | 0.22 | 27 | |
| 20260831102003 | 78 | 296 | 4.0 | 8.0 | 0.00 | 0.26 | 0.22 | 26 | |
| 20260831101503 | 78 | 249 | 3.0 | 6.0 | 0.00 | 0.26 | 0.22 | 28 | |
| 20260831101003 | 77 | 189 | 2.0 | 3.0 | 0.00 | 0.26 | 0.22 | 29 | |
| 20260831100503 | 75 | 218 | 2.0 | 8.0 | 0.00 | 0.26 | 0.22 | 33 | |
| 20260831100003 | 75 | 266 | 2.0 | 8.0 | 0.00 | 0.26 | 0.22 | 33 | |
| 20260831095503 | 75 | 263 | 3.0 | 9.0 | 0.00 | 0.26 | 0.22 | 32 | |
| 20260831095003 | 74 | 250 | 2.0 | 13.0 | 0.00 | 0.26 | 0.22 | 33 | |
| 20260831094503 | 73 | 263 | 2.0 | 13.0 | 0.00 | 0.26 | 0.22 | 35 | |
| 20260831094003 | 73 | 318 | 2.0 | 10.0 | 0.00 | 0.26 | 0.22 | 35 | |
| 20260831093503 | 73 | 294 | 2.0 | 10.0 | 0.00 | 0.26 | 0.22 | 34 | |
| 20260831093003 | 73 | 285 | 2.0 | 9.0 | 0.00 | 0.26 | 0.22 | 37 | |
| 20260831092503 | 72 | 274 | 2.0 | 11.0 | 0.00 | 0.26 | 0.22 | 38 | |
| 20260831092003 | 72 | 286 | 2.0 | 11.0 | 0.00 | 0.26 | 0.22 | 38 | |
| 20260831091503 | 72 | 270 | 4.0 | 11.0 | 0.00 | 0.26 | 0.22 | 37 | |
| 20260831091003 | 72 | 242 | 5.0 | 9.0 | 0.00 | 0.26 | 0.22 | 37 | |
| 20260831090503 | 73 | 224 | 3.0 | 7.0 | 0.00 | 0.26 | 0.22 | 39 | |
| 20260831090003 | 73 | 254 | 3.0 | 8.0 | 0.00 | 0.26 | 0.22 | 39 | |
| 20260831085503 | 72 | 277 | 3.0 | 8.0 | 0.00 | 0.26 | 0.22 | 40 | |
| 20260831085003 | 72 | 281 | 3.0 | 11.0 | 0.00 | 0.26 | 0.22 | 42 | |
| 20260831084503 | 71 | 294 | 4.0 | 11.0 | 0.00 | 0.26 | 0.22 | 42 | |
| 20260831084003 | 71 | 245 | 3.0 | 8.0 | 0.00 | 0.26 | 0.22 | 45 | |
| 20260831083503 | 71 | 193 | 2.0 | 8.0 | 0.00 | 0.26 | 0.22 | 45 | |
| 20260831083003 | 70 | 251 | 2.0 | 9.0 | 0.00 | 0.26 | 0.22 | 47 | |
| 20260831082503 | 71 | 270 | 4.0 | 9.0 | 0.00 | 0.26 | 0.22 | 46 | |
| 20260831082003 | 71 | 281 | 2.0 | 8.0 | 0.00 | 0.26 | 0.22 | 48 | |
| 20260831081503 | 71 | 278 | 2.0 | 8.0 | 0.00 | 0.26 | 0.22 | 49 | |
| 20260831081003 | 70 | 269 | 3.0 | 8.0 | 0.00 | 0.26 | 0.22 | 49 | |
| 20260831080503 | 70 | 267 | 3.0 | 8.0 | 0.00 | 0.26 | 0.22 | 54 | |
| 20260831080003 | 70 | 257 | 3.0 | 8.0 | 0.00 | 0.26 | 0.22 | 54 | |
| 20260831075503 | 70 | 251 | 4.0 | 6.0 | 0.00 | 0.26 | 0.22 | 56 | |
| 20260831075003 | 69 | 294 | 1.0 | 5.0 | 0.00 | 0.26 | 0.22 | 59 | |
| 20260831074503 | 69 | 284 | 2.0 | 5.0 | 0.00 | 0.26 | 0.22 | 58 | |
| 20260831074003 | 69 | 250 | 2.0 | 4.0 | 0.00 | 0.26 | 0.22 | 58 | |
| 20260831073503 | 69 | 260 | 2.0 | 4.0 | 0.00 | 0.26 | 0.22 | 58 | |
| 20260831073003 | 69 | 260 | 1.0 | 5.0 | 0.00 | 0.26 | 0.22 | 60 | |
| 20260831072503 | 69 | 260 | 2.0 | 5.0 | 0.00 | 0.26 | 0.22 | 59 | |
| 20260831072003 | 69 | 257 | 2.0 | 7.0 | 0.00 | 0.26 | 0.22 | 58 | |
| 20260831071503 | 70 | 251 | 2.0 | 7.0 | 0.00 | 0.26 | 0.22 | 58 | |
| 20260831071003 | 69 | 336 | 1.0 | 3.0 | 0.00 | 0.26 | 0.22 | 60 | |
| 20260831070503 | 68 | 315 | 0.0 | 2.0 | 0.00 | 0.26 | 0.22 | 67 | |
| 20260831070003 | 68 | 252 | 0.0 | 3.0 | 0.00 | 0.26 | 0.22 | 67 | |
| 20260831065503 | 67 | 262 | 1.0 | 3.0 | 0.00 | 0.26 | 0.22 | 68 | |
| 20260831065003 | 66 | 266 | 1.0 | 3.0 | 0.00 | 0.26 | 0.22 | 69 | |
| 20260831064503 | 66 | 253 | 0.0 | 3.0 | 0.00 | 0.26 | 0.22 | 71 | |
| 20260831064003 | 66 | 272 | 1.0 | 2.0 | 0.00 | 0.26 | 0.22 | 72 | |
| 20260831063503 | 65 | 269 | 0.0 | 2.0 | 0.00 | 0.26 | 0.22 | 73 | |
| 20260831063003 | 65 | 264 | 0.0 | 3.0 | 0.00 | 0.26 | 0.22 | 74 | |
| 20260831062503 | 65 | 269 | 2.0 | 4.0 | 0.00 | 0.26 | 0.22 | 74 | |
| 20260831062003 | 65 | 264 | 2.0 | 4.0 | 0.00 | 0.26 | 0.22 | 74 | |
| 20260831061503 | 65 | 270 | 2.0 | 3.0 | 0.00 | 0.26 | 0.22 | 76 | |
| 20260831061003 | 64 | 270 | 1.0 | 3.0 | 0.00 | 0.26 | 0.22 | 77 | |
| 20260831060503 | 64 | 270 | 0.0 | 3.0 | 0.00 | 0.26 | 0.22 | 78 | |
| 20260831060003 | 64 | 274 | 0.0 | 4.0 | 0.00 | 0.26 | 0.22 | 78 | |
| 20260831055503 | 64 | 274 | 1.0 | 4.0 | 0.00 | 0.26 | 0.22 | 79 | |
| 20260831055003 | 64 | 266 | 2.0 | 3.0 | 0.00 | 0.26 | 0.22 | 80 | |
| 20260831054503 | 63 | 261 | 1.0 | 2.0 | 0.00 | 0.26 | 0.22 | 80 | |
| 20260831054003 | 63 | 269 | 0.0 | 2.0 | 0.00 | 0.26 | 0.22 | 80 | |
| 20260831053503 | 63 | 270 | 0.0 | 2.0 | 0.00 | 0.26 | 0.22 | 80 | |
| 20260831053003 | 63 | 266 | 0.0 | 2.0 | 0.00 | 0.26 | 0.22 | 80 | |
| 20260831052503 | 63 | 244 | 0.0 | 2.0 | 0.00 | 0.26 | 0.22 | 80 | |
| 20260831052003 | 64 | 193 | 0.0 | 2.0 | 0.00 | 0.26 | 0.22 | 80 | |
| 20260831051503 | 64 | 235 | 0.0 | 2.0 | 0.00 | 0.26 | 0.22 | 79 | |
| 20260831051003 | 64 | 264 | 0.0 | 2.0 | 0.00 | 0.26 | 0.22 | 79 | |
| 20260831050503 | 64 | 265 | 1.0 | 4.0 | 0.00 | 0.26 | 0.22 | 79 | |
| 20260831050003 | 64 | 263 | 1.0 | 4.0 | 0.00 | 0.26 | 0.22 | 79 | |
| 20260831045503 | 64 | 267 | 2.0 | 4.0 | 0.00 | 0.26 | 0.22 | 80 | |
| 20260831045003 | 64 | 277 | 2.0 | 5.0 | 0.00 | 0.26 | 0.22 | 82 | |
| 20260831044503 | 64 | 279 | 2.0 | 5.0 | 0.00 | 0.26 | 0.22 | 85 | |
| 20260831044003 | 64 | 260 | 1.0 | 2.0 | 0.00 | 0.26 | 0.22 | 87 | |
| 20260831043503 | 65 | 191 | 0.0 | 1.0 | 0.00 | 0.26 | 0.22 | 88 | |
| 20260831043003 | 65 | 135 | 0.0 | 1.0 | 0.00 | 0.26 | 0.22 | 88 | |
| 20260831042503 | 65 | 135 | 0.0 | 2.0 | 0.00 | 0.26 | 0.22 | 89 | |
| 20260831042003 | 65 | 135 | 0.0 | 2.0 | 0.00 | 0.26 | 0.22 | 89 | |
| 20260831041503 | 65 | 135 | 0.0 | 2.0 | 0.00 | 0.26 | 0.22 | 90 | |
| 20260831041003 | 65 | 135 | 0.0 | 1.0 | 0.00 | 0.26 | 0.22 | 90 | |
| 20260831040503 | 65 | 135 | 0.0 | 2.0 | 0.00 | 0.26 | 0.22 | 91 | |
| 20260831040003 | 65 | 147 | 0.0 | 3.0 | 0.00 | 0.26 | 0.22 | 91 | |
| 20260831035503 | 65 | 158 | 2.0 | 3.0 | 0.00 | 0.26 | 0.22 | 91 | |
| 20260831035003 | 65 | 145 | 0.0 | 2.0 | 0.00 | 0.26 | 0.22 | 92 | |
| 20260831034503 | 65 | 139 | 1.0 | 2.0 | 0.00 | 0.26 | 0.22 | 93 | |
| 20260831034003 | 65 | 139 | 0.0 | 2.0 | 0.00 | 0.26 | 0.22 | 93 | |
| 20260831033503 | 65 | 137 | 0.0 | 2.0 | 0.00 | 0.26 | 0.22 | 93 | |
| 20260831033003 | 65 | 153 | 0.0 | 2.0 | 0.00 | 0.26 | 0.22 | 93 | |
| 20260831032503 | 66 | 163 | 0.0 | 3.0 | 0.00 | 0.26 | 0.22 | 94 | |
| 20260831032003 | 66 | 144 | 0.0 | 3.0 | 0.00 | 0.26 | 0.22 | 94 | |
| 20260831031503 | 66 | 135 | 0.0 | 2.0 | 0.00 | 0.26 | 0.22 | 94 | |
| 20260831031003 | 66 | 0 | 0.0 | 0.0 | 0.00 | 0.26 | 0.22 | 94 | |
| 20260831030503 | 66 | 135 | 0.0 | 2.0 | 0.00 | 0.26 | 0.22 | 94 | |
| 20260831030003 | 66 | 135 | 0.0 | 2.0 | 0.00 | 0.26 | 0.22 | 94 | |
| 20260831025503 | 66 | 135 | 1.0 | 2.0 | 0.00 | 0.26 | 0.22 | 94 | |
| 20260831025003 | 66 | 0 | 0.0 | 0.0 | 0.00 | 0.26 | 0.22 | 94 | |
| 20260831024503 | 66 | 0 | 0.0 | 0.0 | 0.00 | 0.26 | 0.22 | 94 | |
| 20260831024003 | 66 | 0 | 0.0 | 0.0 | 0.00 | 0.26 | 0.22 | 94 | |
| 20260831023503 | 66 | 225 | 0.0 | 2.0 | 0.00 | 0.26 | 0.22 | 94 | |
| 20260831023003 | 66 | 189 | 0.0 | 2.0 | 0.00 | 0.26 | 0.22 | 95 | |
| 20260831022503 | 66 | 155 | 1.0 | 2.0 | 0.00 | 0.26 | 0.22 | 95 | |
| 20260831022003 | 66 | 135 | 0.0 | 2.0 | 0.00 | 0.26 | 0.22 | 95 | |
| 20260831021503 | 66 | 0 | 0.0 | 0.0 | 0.00 | 0.26 | 0.22 | 95 | |
| 20260831021003 | 66 | 0 | 0.0 | 0.0 | 0.00 | 0.26 | 0.22 | 94 | |
| 20260831020503 | 66 | 360 | 0.0 | 1.0 | 0.00 | 0.26 | 0.22 | 94 | |
| 20260831020003 | 66 | 360 | 0.0 | 1.0 | 0.00 | 0.26 | 0.22 | 94 | |
| 20260831015503 | 66 | 360 | 0.0 | 1.0 | 0.00 | 0.26 | 0.22 | 94 | |
| 20260831015003 | 66 | 360 | 0.0 | 3.0 | 0.00 | 0.26 | 0.22 | 94 | |
| 20260831014503 | 66 | 360 | 0.0 | 3.0 | 0.00 | 0.26 | 0.22 | 94 | |
| 20260831014003 | 66 | 360 | 0.0 | 2.0 | 0.00 | 0.26 | 0.22 | 94 | |
| 20260831013503 | 66 | 360 | 0.0 | 2.0 | 0.00 | 0.26 | 0.22 | 94 | |
| 20260831013003 | 66 | 360 | 0.0 | 2.0 | 0.00 | 0.26 | 0.22 | 94 | |
| 20260831012503 | 66 | 351 | 0.0 | 2.0 | 0.00 | 0.26 | 0.22 | 93 | |
| 20260831012003 | 66 | 200 | 0.0 | 2.0 | 0.00 | 0.26 | 0.22 | 93 | |
| 20260831011503 | 66 | 180 | 0.0 | 1.0 | 0.00 | 0.26 | 0.22 | 93 | |
| 20260831011003 | 66 | 180 | 0.0 | 1.0 | 0.00 | 0.26 | 0.22 | 93 | |
| 20260831010503 | 66 | 186 | 0.0 | 2.0 | 0.00 | 0.26 | 0.22 | 93 | |
| 20260831010003 | 66 | 184 | 0.0 | 2.0 | 0.00 | 0.26 | 0.22 | 93 | |
| 20260831005503 | 66 | 183 | 1.0 | 2.0 | 0.00 | 0.26 | 0.22 | 93 | |
| 20260831005003 | 66 | 184 | 0.0 | 2.0 | 0.00 | 0.26 | 0.22 | 93 | |
| 20260831004503 | 66 | 180 | 0.0 | 2.0 | 0.00 | 0.26 | 0.22 | 93 | |
| 20260831004003 | 66 | 180 | 0.0 | 2.0 | 0.00 | 0.26 | 0.22 | 93 | |
| 20260831003503 | 67 | 180 | 0.0 | 2.0 | 0.01 | 0.26 | 0.22 | 93 | |
| 20260831003003 | 67 | 180 | 0.0 | 1.0 | 0.01 | 0.26 | 0.22 | 93 | |
| 20260831002503 | 67 | 180 | 0.0 | 2.0 | 0.01 | 0.26 | 0.22 | 92 | |
| 20260831002003 | 67 | 180 | 0.0 | 2.0 | 0.01 | 0.26 | 0.22 | 92 | |
| 20260831001503 | 67 | 0 | 0.0 | 0.0 | 0.02 | 0.26 | 0.22 | 92 | |
| 20260831001003 | 67 | 0 | 0.0 | 0.0 | 0.02 | 0.26 | 0.22 | 92 | |
| 20260831000503 | 67 | 180 | 0.0 | 2.0 | 0.07 | 0.26 | 0.22 | 91 | |
| 20260831000003 | 67 | 180 | 0.0 | 2.0 | 0.07 | 0.26 | 0.22 | 91 | |
| 20260830235503 | 66 | 180 | 0.0 | 2.0 | 0.09 | 0.26 | 0.22 | 91 | |
| 20260830235003 | 66 | 180 | 0.0 | 2.0 | 0.09 | 0.26 | 0.22 | 91 | |
| 20260830234503 | 66 | 180 | 0.0 | 1.0 | 0.09 | 0.26 | 0.22 | 90 | |
| 20260830234003 | 66 | 195 | 0.0 | 1.0 | 0.09 | 0.26 | 0.22 | 89 | |
| 20260830233503 | 66 | 214 | 0.0 | 1.0 | 0.08 | 0.25 | 0.21 | 89 | |
| 20260830233003 | 66 | 168 | 0.0 | 1.0 | 0.08 | 0.25 | 0.21 | 89 | |
| 20260830232503 | 66 | 209 | 0.0 | 4.0 | 0.08 | 0.25 | 0.21 | 88 | |
| 20260830232003 | 66 | 227 | 0.0 | 4.0 | 0.08 | 0.25 | 0.21 | 88 | |
| 20260830231503 | 66 | 268 | 0.0 | 4.0 | 0.07 | 0.24 | 0.20 | 87 | |
| 20260830231003 | 66 | 275 | 1.0 | 4.0 | 0.08 | 0.24 | 0.20 | 87 | |
| 20260830230503 | 67 | 275 | 3.0 | 4.0 | 0.15 | 0.19 | 0.15 | 86 | |
| 20260830230003 | 67 | 280 | 3.0 | 4.0 | 0.15 | 0.19 | 0.15 | 86 | |
| 20260830225503 | 67 | 251 | 0.0 | 2.0 | 0.17 | 0.17 | 0.13 | 86 | |
| 20260830225003 | 67 | 253 | 0.0 | 2.0 | 0.17 | 0.17 | 0.13 | 85 | |
| 20260830224503 | 67 | 207 | 0.0 | 2.0 | 0.17 | 0.17 | 0.13 | 85 | |
| 20260830224003 | 67 | 180 | 0.0 | 2.0 | 0.17 | 0.17 | 0.13 | 84 | |
| 20260830223503 | 67 | 196 | 0.0 | 2.0 | 0.17 | 0.17 | 0.13 | 83 | |
| 20260830223003 | 67 | 247 | 0.0 | 2.0 | 0.17 | 0.17 | 0.13 | 83 | |
| 20260830222503 | 67 | 244 | 0.0 | 4.0 | 0.17 | 0.17 | 0.13 | 82 | |
| 20260830222003 | 67 | 244 | 0.0 | 5.0 | 0.17 | 0.17 | 0.13 | 80 | |
| 20260830221503 | 67 | 285 | 2.0 | 6.0 | 0.17 | 0.17 | 0.13 | 78 | |
| 20260830221003 | 68 | 313 | 2.0 | 6.0 | 0.15 | 0.15 | 0.12 | 74 | |
| 20260830220503 | 71 | 298 | 3.0 | 11.0 | 0.04 | 0.04 | 0.00 | 61 | |
| 20260830220003 | 71 | 270 | 3.0 | 12.0 | 0.04 | 0.04 | 0.00 | 61 | |
| 20260830215503 | 72 | 250 | 6.0 | 12.0 | 0.00 | 0.00 | 0.00 | 52 | |
| 20260830215003 | 72 | 244 | 2.0 | 4.0 | 0.00 | 0.00 | 0.00 | 54 | |
| 20260830214503 | 72 | 181 | 0.0 | 2.0 | 0.00 | 0.00 | 0.00 | 52 | |
| 20260830214003 | 72 | 180 | 0.0 | 2.0 | 0.00 | 0.00 | 0.00 | 51 | |
| 20260830213503 | 73 | 180 | 0.0 | 1.0 | 0.00 | 0.00 | 0.00 | 51 | |
| 20260830213003 | 73 | 180 | 0.0 | 2.0 | 0.00 | 0.00 | 0.00 | 51 | |
| 20260830212503 | 73 | 187 | 0.0 | 2.0 | 0.00 | 0.00 | 0.00 | 51 | |
| 20260830212003 | 73 | 185 | 0.0 | 2.0 | 0.00 | 0.00 | 0.00 | 51 | |
| 20260830211503 | 73 | 180 | 0.0 | 2.0 | 0.00 | 0.00 | 0.00 | 50 | |
| 20260830211003 | 73 | 180 | 0.0 | 2.0 | 0.00 | 0.00 | 0.00 | 49 | |
| 20260830210503 | 73 | 180 | 0.0 | 1.0 | 0.00 | 0.00 | 0.00 | 46 | |
| 20260830210003 | 73 | 140 | 0.0 | 2.0 | 0.00 | 0.00 | 0.00 | 46 | |
| 20260830205503 | 74 | 153 | 0.0 | 2.0 | 0.00 | 0.00 | 0.00 | 45 | |
| 20260830205003 | 74 | 180 | 0.0 | 1.0 | 0.00 | 0.00 | 0.00 | 45 | |
| 20260830204503 | 74 | 180 | 0.0 | 1.0 | 0.00 | 0.00 | 0.00 | 44 | |
| 20260830204003 | 74 | 180 | 0.0 | 1.0 | 0.00 | 0.00 | 0.00 | 44 | |
| 20260830203503 | 74 | 0 | 0.0 | 0.0 | 0.00 | 0.00 | 0.00 | 43 | |
| 20260830203003 | 75 | 180 | 0.0 | 1.0 | 0.00 | 0.00 | 0.00 | 43 | |
| 20260830202503 | 75 | 180 | 0.0 | 2.0 | 0.00 | 0.00 | 0.00 | 43 | |
| 20260830202003 | 75 | 180 | 0.0 | 2.0 | 0.00 | 0.00 | 0.00 | 42 | |
| 20260830201503 | 75 | 180 | 0.0 | 2.0 | 0.00 | 0.00 | 0.00 | 42 | |
| 20260830201003 | 75 | 180 | 0.0 | 2.0 | 0.00 | 0.00 | 0.00 | 41 | |
| 20260830200503 | 76 | 0 | 0.0 | 0.0 | 0.00 | 0.00 | 0.00 | 40 | |
| 20260830200003 | 76 | 180 | 0.0 | 2.0 | 0.00 | 0.00 | 0.00 | 40 | |
| 20260830195503 | 76 | 180 | 0.0 | 2.0 | 0.00 | 0.00 | 0.00 | 39 | |
| 20260830195003 | 76 | 180 | 1.0 | 2.0 | 0.00 | 0.00 | 0.00 | 39 | |
| 20260830194503 | 77 | 180 | 0.0 | 2.0 | 0.00 | 0.00 | 0.00 | 38 | |
| 20260830194003 | 77 | 180 | 0.0 | 1.0 | 0.00 | 0.00 | 0.00 | 37 | |
| 20260830193503 | 77 | 180 | 0.0 | 2.0 | 0.00 | 0.00 | 0.00 | 37 | |
| 20260830193003 | 78 | 180 | 0.0 | 2.0 | 0.00 | 0.00 | 0.00 | 36 | |
| 20260830192503 | 78 | 180 | 0.0 | 2.0 | 0.00 | 0.00 | 0.00 | 35 | |
| 20260830192003 | 78 | 180 | 1.0 | 2.0 | 0.00 | 0.00 | 0.00 | 35 | |
| 20260830191503 | 79 | 0 | 0.0 | 0.0 | 0.00 | 0.00 | 0.00 | 34 | |
| 20260830191003 | 79 | 0 | 0.0 | 0.0 | 0.00 | 0.00 | 0.00 | 33 | |
| 20260830190503 | 79 | 180 | 0.0 | 1.0 | 0.00 | 0.00 | 0.00 | 32 | |
| 20260830190003 | 79 | 180 | 0.0 | 2.0 | 0.00 | 0.00 | 0.00 | 32 | |
| 20260830185503 | 79 | 180 | 0.0 | 2.0 | 0.00 | 0.00 | 0.00 | 31 | |
| 20260830185003 | 79 | 270 | 0.0 | 2.0 | 0.00 | 0.00 | 0.00 | 31 | |
| 20260830184503 | 79 | 270 | 0.0 | 2.0 | 0.00 | 0.00 | 0.00 | 30 | |
| 20260830184003 | 79 | 270 | 0.0 | 2.0 | 0.00 | 0.00 | 0.00 | 29 | |
| 20260830183503 | 80 | 270 | 0.0 | 2.0 | 0.00 | 0.00 | 0.00 | 29 | |
| 20260830183003 | 80 | 266 | 0.0 | 2.0 | 0.00 | 0.00 | 0.00 | 29 | |
| 20260830182503 | 80 | 256 | 0.0 | 2.0 | 0.00 | 0.00 | 0.00 | 28 | |
| 20260830182003 | 80 | 254 | 0.0 | 2.0 | 0.00 | 0.00 | 0.00 | 28 | |
| 20260830181503 | 80 | 270 | 0.0 | 2.0 | 0.00 | 0.00 | 0.00 | 28 | |
| 20260830181003 | 80 | 270 | 0.0 | 2.0 | 0.00 | 0.00 | 0.00 | 28 | |
| 20260830180503 | 80 | 266 | 0.0 | 2.0 | 0.00 | 0.00 | 0.00 | 27 | |
| 20260830180003 | 80 | 263 | 0.0 | 4.0 | 0.00 | 0.00 | 0.00 | 27 | |
| 20260830175503 | 81 | 260 | 2.0 | 4.0 | 0.00 | 0.00 | 0.00 | 26 | |
| 20260830175003 | 81 | 263 | 1.0 | 3.0 | 0.00 | 0.00 | 0.00 | 26 | |
| 20260830174503 | 81 | 262 | 0.0 | 3.0 | 0.00 | 0.00 | 0.00 | 25 | |
| 20260830174003 | 82 | 277 | 0.0 | 2.0 | 0.00 | 0.00 | 0.00 | 25 | |
| 20260830173503 | 82 | 285 | 1.0 | 2.0 | 0.00 | 0.00 | 0.00 | 25 | |
| 20260830173003 | 82 | 275 | 0.0 | 3.0 | 0.00 | 0.00 | 0.00 | 25 | |
| 20260830172503 | 82 | 278 | 0.0 | 3.0 | 0.00 | 0.00 | 0.00 | 24 | |
| 20260830172003 | 83 | 267 | 1.0 | 2.0 | 0.00 | 0.00 | 0.00 | 23 | |
| 20260830171503 | 83 | 229 | 1.0 | 2.0 | 0.00 | 0.00 | 0.00 | 23 | |
| 20260830171003 | 84 | 192 | 1.0 | 2.0 | 0.00 | 0.00 | 0.00 | 22 | |
| 20260830170503 | 84 | 251 | 0.0 | 2.0 | 0.00 | 0.00 | 0.00 | 22 | |
| 20260830170003 | 84 | 263 | 0.0 | 2.0 | 0.00 | 0.00 | 0.00 | 22 | |
| 20260830165503 | 84 | 231 | 0.0 | 3.0 | 0.00 | 0.00 | 0.00 | 22 | |
| 20260830165003 | 84 | 280 | 0.0 | 4.0 | 0.00 | 0.00 | 0.00 | 21 | |
| 20260830164503 | 85 | 287 | 2.0 | 4.0 | 0.00 | 0.00 | 0.00 | 20 | |
| 20260830164003 | 85 | 272 | 0.0 | 4.0 | 0.00 | 0.00 | 0.00 | 20 | |
| 20260830163503 | 86 | 275 | 0.0 | 4.0 | 0.00 | 0.00 | 0.00 | 19 | |
| 20260830163003 | 87 | 271 | 1.0 | 4.0 | 0.00 | 0.00 | 0.00 | 18 | |
| 20260830162503 | 87 | 273 | 1.0 | 4.0 | 0.00 | 0.00 | 0.00 | 17 | |
| 20260830162003 | 88 | 262 | 2.0 | 4.0 | 0.00 | 0.00 | 0.00 | 16 | |
| 20260830161503 | 90 | 317 | 0.0 | 4.0 | 0.00 | 0.00 | 0.00 | 15 | |
| 20260830161004 | 90 | 17 | 0.0 | 4.0 | 0.00 | 0.00 | 0.00 | 15 | |
| 20260830160503 | 90 | 9 | 2.0 | 4.0 | 0.00 | 0.00 | 0.00 | 15 | |
| 20260830160003 | 90 | 261 | 2.0 | 4.0 | 0.00 | 0.00 | 0.00 | 15 | |
| 20260830155503 | 90 | 268 | 0.0 | 4.0 | 0.00 | 0.00 | 0.00 | 16 | |
| 20260830155003 | 89 | 294 | 1.0 | 4.0 | 0.00 | 0.00 | 0.00 | 17 | |
| 20260830154503 | 89 | 320 | 1.0 | 4.0 | 0.00 | 0.00 | 0.00 | 16 | |
| 20260830154003 | 90 | 256 | 0.0 | 4.0 | 0.00 | 0.00 | 0.00 | 15 | |
| 20260830153503 | 90 | 235 | 1.0 | 4.0 | 0.00 | 0.00 | 0.00 | 14 | |
| 20260830153003 | 91 | 229 | 2.0 | 5.0 | 0.00 | 0.00 | 0.00 | 15 | |
| 20260830152503 | 91 | 210 | 2.0 | 5.0 | 0.00 | 0.00 | 0.00 | 15 | |
| 20260830152003 | 90 | 221 | 0.0 | 5.0 | 0.00 | 0.00 | 0.00 | 16 | |
| 20260830151503 | 90 | 237 | 2.0 | 6.0 | 0.00 | 0.00 | 0.00 | 15 | |
| 20260830151003 | 90 | 237 | 0.0 | 6.0 | 0.00 | 0.00 | 0.00 | 15 | |
| 20260830150503 | 90 | 235 | 0.0 | 4.0 | 0.00 | 0.00 | 0.00 | 16 | |
| 20260830150003 | 90 | 265 | 0.0 | 4.0 | 0.00 | 0.00 | 0.00 | 16 | |
| 20260830145503 | 90 | 303 | 1.0 | 4.0 | 0.00 | 0.00 | 0.00 | 16 | |
| 20260830145003 | 90 | 324 | 1.0 | 5.0 | 0.00 | 0.00 | 0.00 | 16 | |
| 20260830144503 | 89 | 304 | 0.0 | 5.0 | 0.00 | 0.00 | 0.00 | 18 | |
| 20260830144003 | 89 | 259 | 3.0 | 6.0 | 0.00 | 0.00 | 0.00 | 17 | |
| 20260830143503 | 89 | 251 | 0.0 | 6.0 | 0.00 | 0.00 | 0.00 | 16 | |
| 20260830143003 | 89 | 268 | 2.0 | 4.0 | 0.00 | 0.00 | 0.00 | 18 | |
| 20260830142503 | 89 | 298 | 1.0 | 5.0 | 0.00 | 0.00 | 0.00 | 19 | |
| 20260830142003 | 88 | 245 | 2.0 | 5.0 | 0.00 | 0.00 | 0.00 | 18 | |
| 20260830141503 | 89 | 254 | 2.0 | 4.0 | 0.00 | 0.00 | 0.00 | 18 | |
| 20260830141003 | 89 | 267 | 2.0 | 4.0 | 0.00 | 0.00 | 0.00 | 17 | |
| 20260830140503 | 89 | 260 | 1.0 | 6.0 | 0.00 | 0.00 | 0.00 | 19 | |
| 20260830140003 | 89 | 244 | 1.0 | 8.0 | 0.00 | 0.00 | 0.00 | 19 | |
| 20260830135503 | 89 | 242 | 2.0 | 8.0 | 0.00 | 0.00 | 0.00 | 20 | |
| 20260830135003 | 89 | 233 | 2.0 | 4.0 | 0.00 | 0.00 | 0.00 | 20 | |
| 20260830134503 | 88 | 250 | 1.0 | 6.0 | 0.00 | 0.00 | 0.00 | 21 | |
| 20260830134003 | 87 | 262 | 0.0 | 8.0 | 0.00 | 0.00 | 0.00 | 22 | |
| 20260830133503 | 87 | 257 | 4.0 | 8.0 | 0.00 | 0.00 | 0.00 | 21 | |
| 20260830133003 | 88 | 268 | 1.0 | 8.0 | 0.00 | 0.00 | 0.00 | 21 | |
| 20260830132503 | 88 | 298 | 2.0 | 4.0 | 0.00 | 0.00 | 0.00 | 22 | |
| 20260830132003 | 87 | 267 | 1.0 | 5.0 | 0.00 | 0.00 | 0.00 | 22 | |
| 20260830131503 | 87 | 280 | 1.0 | 5.0 | 0.00 | 0.00 | 0.00 | 23 | |
| 20260830131003 | 87 | 312 | 2.0 | 4.0 | 0.00 | 0.00 | 0.00 | 22 | |
| 20260830130503 | 87 | 300 | 1.0 | 5.0 | 0.00 | 0.00 | 0.00 | 23 | |
| 20260830130003 | 87 | 252 | 1.0 | 5.0 | 0.00 | 0.00 | 0.00 | 23 | |
| 20260830125503 | 87 | 222 | 2.0 | 8.0 | 0.00 | 0.00 | 0.00 | 22 | |
| 20260830125003 | 88 | 237 | 1.0 | 8.0 | 0.00 | 0.00 | 0.00 | 22 | |
| 20260830124503 | 88 | 292 | 1.0 | 7.0 | 0.00 | 0.00 | 0.00 | 23 | |
| 20260830124003 | 88 | 304 | 2.0 | 7.0 | 0.00 | 0.00 | 0.00 | 22 | |
| 20260830123503 | 88 | 312 | 1.0 | 7.0 | 0.00 | 0.00 | 0.00 | 22 | |
| 20260830123003 | 88 | 251 | 2.0 | 4.0 | 0.00 | 0.00 | 0.00 | 21 | |
| 20260830122503 | 87 | 212 | 1.0 | 6.0 | 0.00 | 0.00 | 0.00 | 22 | |
| 20260830122003 | 87 | 145 | 1.0 | 6.0 | 0.00 | 0.00 | 0.00 | 22 | |
| 20260830121503 | 86 | 240 | 1.0 | 6.0 | 0.00 | 0.00 | 0.00 | 25 | |
| 20260830121003 | 85 | 267 | 2.0 | 6.0 | 0.00 | 0.00 | 0.00 | 24 | |
| 20260830120503 | 87 | 283 | 2.0 | 5.0 | 0.00 | 0.00 | 0.00 | 25 | |
| 20260830120003 | 87 | 305 | 2.0 | 5.0 | 0.00 | 0.00 | 0.00 | 25 | |
| 20260830115503 | 87 | 294 | 3.0 | 6.0 | 0.00 | 0.00 | 0.00 | 23 | |
| 20260830115003 | 86 | 307 | 3.0 | 6.0 | 0.00 | 0.00 | 0.00 | 24 | |
| 20260830114503 | 86 | 264 | 1.0 | 5.0 | 0.00 | 0.00 | 0.00 | 24 | |
| 20260830114003 | 86 | 137 | 2.0 | 6.0 | 0.00 | 0.00 | 0.00 | 24 | |
| 20260830113503 | 87 | 19 | 2.0 | 6.0 | 0.00 | 0.00 | 0.00 | 24 | |
| 20260830113003 | 87 | 339 | 0.0 | 6.0 | 0.00 | 0.00 | 0.00 | 25 | |
| 20260830112503 | 86 | 5 | 1.0 | 6.0 | 0.00 | 0.00 | 0.00 | 25 | |
| 20260830112003 | 87 | 270 | 2.0 | 5.0 | 0.00 | 0.00 | 0.00 | 24 | |
| 20260830111503 | 86 | 258 | 0.0 | 4.0 | 0.00 | 0.00 | 0.00 | 27 | |
| 20260830111003 | 86 | 258 | 2.0 | 4.0 | 0.00 | 0.00 | 0.00 | 25 |